GW3493 Weather Reports


time (UTC)temp
C
wind
direction
speed
KPH
gust
KPH
rain 1hr
cm
rain 24hr
cm
rain mn
cm
humidity
%
barometer
mb
20260508033153 6 0.0 0.0 0.00 0.00 0.00 60 1011.5
20260508032214 6 0.0 0.0 0.00 0.00 0.00 58 1011.5
20260508031133 6 0.0 0.0 0.00 0.00 0.00 59 1011.6
20260508030214 7 0.0 0.0 0.00 0.00 0.00 59 1011.6
20260508025113 7 0.0 0.0 0.00 0.00 0.00 58 1011.6
20260508024133 7 0.0 0.0 0.00 0.00 0.00 56 1011.7
20260508023153 8 0.0 0.0 0.00 0.00 0.00 53 1011.5
20260508022214 8 349 0.0 0.0 0.00 0.00 0.00 52 1011.4
20260508021132 8 0.0 0.0 0.00 0.00 0.00 52 1011.3
20260508020154 8 0.0 0.0 0.00 0.00 0.00 51 1011.2
20260508015113 8 349 0.0 0.0 0.00 0.00 0.00 50 1011.0
20260508014154 9 349 0.0 0.0 0.00 0.00 0.00 49 1011.0
20260508013155 10 349 0.0 0.0 0.00 0.00 0.00 47 1010.9
20260508012217 10 338 0.0 3.2 0.00 0.00 0.00 46 1010.8
20260508011135 10 9 0.0 1.6 0.00 0.00 0.00 45 1010.7
20260508010156 10 31 1.6 1.6 0.00 0.00 0.00 44 1010.5
20260508005114 11 26 0.0 1.6 0.00 0.00 0.00 43 1010.5
20260508004136 11 323 1.6 4.8 0.00 0.00 0.00 42 1010.4
20260508003217 11 26 1.6 9.7 0.00 0.00 0.00 42 1010.1
20260508002219 12 357 0.0 6.4 0.00 0.00 0.00 41 1009.9
20260508001137 12 345 3.2 6.4 0.00 0.00 0.00 41 1009.7
20260508000158 12 3 1.6 3.2 0.00 0.00 0.00 41 1009.5
20260507235117 12 102 0.0 4.8 0.00 0.00 0.00 40 1009.4
20260507234138 13 351 1.6 4.8 0.00 0.00 0.00 40 1009.4
20260507233200 13 312 1.6 6.4 0.00 0.00 0.00 39 1009.3
20260507232222 13 14 1.6 6.4 0.00 0.00 0.00 39 1009.2
20260507231140 13 262 3.2 4.8 0.00 0.00 0.00 39 1009.1
20260507230201 13 9 1.6 6.4 0.00 0.00 0.00 38 1009.0
20260507225119 13 53 1.6 11.3 0.00 0.00 0.00 37 1008.8
20260507224141 13 312 1.6 3.2 0.00 0.00 0.00 38 1008.9
20260507223203 14 316 1.6 4.8 0.00 0.00 0.00 35 1008.7
20260507222306 15 2 3.2 11.3 0.00 0.00 0.00 35 1008.6
20260507221142 14 312 1.6 4.8 0.00 0.00 0.00 36 1008.5
20260507220203 15 25 3.2 4.8 0.00 0.00 0.00 34 1008.5
20260507215121 16 291 1.6 4.8 0.00 0.00 0.00 33 1008.3
20260507214143 15 288 3.2 9.7 0.00 0.00 0.00 33 1008.2
20260507213205 16 209 3.2 11.3 0.00 0.00 0.00 33 1008.0
20260507212226 15 1 1.6 4.8 0.00 0.00 0.00 35 1008.1
20260507211144 16 103 6.4 16.1 0.00 0.00 0.00 32 1008.1
20260507210225 15 305 3.2 9.7 0.00 0.00 0.00 33 1008.0
20260507205123 16 337 3.2 9.7 0.00 0.00 0.00 32 1008.0
20260507204205 15 26 1.6 6.4 0.00 0.00 0.00 34 1008.0
20260507203226 16 258 1.6 4.8 0.00 0.00 0.00 32 1008.0
20260507202227 16 263 6.4 11.3 0.00 0.00 0.00 30 1008.0
20260507201205 16 338 1.6 9.7 0.00 0.00 0.00 32 1008.1
20260507200206 17 253 4.8 12.9 0.00 0.00 0.00 31 1008.1
20260507195123 16 229 3.2 9.7 0.00 0.00 0.00 33 1008.2
20260507194145 17 238 4.8 9.7 0.00 0.00 0.00 30 1008.4
20260507193226 16 258 3.2 4.8 0.00 0.00 0.00 32 1008.5
20260507192228 16 252 4.8 11.3 0.00 0.00 0.00 32 1008.6
20260507191146 16 299 3.2 6.4 0.00 0.00 0.00 34 1008.4
20260507190206 15 79 3.2 9.7 0.00 0.00 0.00 35 1008.4
20260507185125 16 273 3.2 9.7 0.00 0.00 0.00 34 1008.5
20260507184146 15 295 3.2 6.4 0.00 0.00 0.00 36 1008.7
20260507183228 16 238 6.4 12.9 0.00 0.00 0.00 34 1008.7
20260507182230 15 310 3.2 9.7 0.00 0.00 0.00 36 1008.8
20260507181148 15 245 3.2 6.4 0.00 0.00 0.00 37 1008.8
20260507180210 14 319 1.6 3.2 0.00 0.00 0.00 42 1008.9
20260507175128 15 285 3.2 9.7 0.00 0.00 0.00 40 1008.9
20260507174149 15 252 4.8 11.3 0.00 0.00 0.00 40 1009.1
20260507173231 15 293 4.8 11.3 0.00 0.00 0.00 39 1009.3
20260507172232 14 273 1.6 4.8 0.00 0.00 0.00 40 1009.2
20260507171150 15 109 3.2 6.4 0.00 0.00 0.00 41 1009.4
20260507170211 15 329 1.6 6.4 0.00 0.00 0.00 40 1009.5
20260507165130 15 280 4.8 14.5 0.00 0.00 0.00 44 1009.6
20260507164151 15 263 4.8 11.3 0.00 0.00 0.00 43 1009.7
20260507163109 14 276 1.6 6.4 0.00 0.00 0.00 44 1009.7
20260507162234 13 220 3.2 6.4 0.00 0.00 0.00 45 1009.8
20260507161152 13 322 3.2 9.7 0.00 0.00 0.00 44 1009.9
20260507160214 13 284 1.6 4.8 0.00 0.00 0.00 44 1009.9
20260507155152 13 300 3.2 9.7 0.00 0.00 0.00 44 1010.0
20260507154154 13 248 3.2 6.4 0.00 0.00 0.00 43 1010.2
20260507153152 13 284 1.6 6.4 0.00 0.00 0.00 45 1010.3
20260507152237 13 288 1.6 6.4 0.00 0.00 0.00 46 1010.2
20260507151155 12 257 1.6 3.2 0.00 0.00 0.00 45 1010.5
20260507150217 12 310 1.6 9.7 0.00 0.00 0.00 45 1010.5
20260507145134 12 348 1.6 4.8 0.00 0.00 0.00 46 1010.7
20260507144236 12 302 3.2 9.7 0.00 0.00 0.00 46 1010.9
20260507143114 12 275 3.2 6.4 0.00 0.00 0.00 47 1010.9
20260507142240 12 297 3.2 6.4 0.00 0.00 0.00 50 1010.9
20260507141217 11 252 3.2 9.7 0.00 0.00 0.00 51 1011.1
20260507140219 11 340 1.6 4.8 0.00 0.00 0.00 53 1011.3
20260507135137 11 85 1.6 6.4 0.00 0.00 0.00 52 1011.4
20260507134158 11 278 0.0 4.8 0.00 0.00 0.00 55 1011.5
20260507133115 11 309 3.2 4.8 0.00 0.00 0.00 57 1011.5
20260507132240 10 252 3.2 9.7 0.00 0.00 0.00 57 1011.4
20260507131158 10 318 1.6 3.2 0.00 0.00 0.00 60 1011.6
20260507130220 9 322 1.6 3.2 0.00 0.00 0.00 66 1011.6
20260507125138 8 306 0.0 4.8 0.00 0.00 0.00 72 1011.5
20260507124157 7 291 1.6 4.8 0.00 0.00 0.00 76 1011.6
20260507123136 7 283 1.6 3.2 0.00 0.00 0.00 78 1011.5
20260507122241 6 283 1.6 3.2 0.00 0.00 0.00 82 1011.6
20260507121159 6 298 1.6 3.2 0.00 0.00 0.00 85 1011.5
20260507120240 5 20 0.0 1.6 0.00 0.00 0.00 95 1011.6
20260507115138 3 20 0.0 1.6 0.00 0.00 0.00 95 1011.6
20260507114200 3 20 0.0 1.6 0.00 0.00 0.00 95 1011.6
20260507113118 3 20 1.6 1.6 0.00 0.00 0.00 96 1011.5
20260507112243 2 0.0 0.0 0.00 0.00 0.00 95 1011.4
20260507111200 2 0.0 0.0 0.00 0.00 0.00 95 1011.2
20260507110222 1 0.0 0.0 0.00 0.00 0.00 95 1011.2
20260507105140 1 0.0 0.0 0.00 0.00 0.00 95 1011.1
20260507104241 1 0.0 0.0 0.00 0.00 0.00 95 1010.9
20260507103119 1 0.0 0.0 0.00 0.00 0.00 94 1010.9
20260507102243 1 0.0 0.0 0.00 0.00 0.00 94 1010.9
20260507101201 2 0.0 0.0 0.00 0.00 0.00 94 1011.0
20260507100243 2 0.0 0.0 0.00 0.00 0.00 93 1010.9
20260507095141 2 0.0 0.0 0.00 0.00 0.00 93 1010.9
20260507094202 2 0.0 0.0 0.00 0.00 0.00 93 1010.9
20260507093120 2 0.0 0.0 0.00 0.00 0.00 92 1010.9
20260507092245 2 0.0 0.0 0.00 0.00 0.00 91 1011.0
20260507091202 3 0.0 0.0 0.00 0.00 0.00 91 1011.0
20260507090221 3 0.0 0.0 0.00 0.00 0.00 91 1010.9
20260507085139 3 20 0.0 0.0 0.00 0.00 0.00 91 1011.0
20260507084200 3 20 0.0 0.0 0.00 0.00 0.00 90 1011.0
20260507083119 3 0.0 0.0 0.00 0.00 0.00 89 1011.0
20260507082324 3 20 0.0 1.6 0.00 0.00 0.00 88 1011.0
20260507081221 3 20 0.0 0.0 0.00 0.00 0.00 89 1010.9
20260507080223 3 0.0 0.0 0.00 0.00 0.00 88 1011.0
20260507075141 3 0.0 0.0 0.00 0.00 0.00 87 1011.0
20260507074202 4 0.0 0.0 0.00 0.00 0.00 84 1010.9
20260507073121 5 0.0 0.0 0.00 0.00 0.00 83 1011.0
20260507072246 5 0.0 0.0 0.00 0.00 0.00 83 1011.1
20260507071204 5 0.0 0.0 0.00 0.00 0.00 82 1011.1
20260507070226 5 0.0 0.0 0.00 0.00 0.00 81 1011.3
20260507065144 5 0.0 0.0 0.00 0.00 0.00 81 1011.3
20260507064205 5 0.0 0.0 0.00 0.00 0.00 79 1011.3
20260507063124 6 0.0 0.0 0.00 0.00 0.00 77 1011.2
20260507062145 6 0.0 0.0 0.00 0.00 0.00 76 1011.2
20260507061207 7 0.0 0.0 0.00 0.00 0.00 74 1011.3
20260507060228 7 0.0 0.0 0.00 0.00 0.00 72 1011.3
20260507055206 8 0.0 0.0 0.00 0.00 0.00 70 1011.5
20260507054208 8 20 0.0 0.0 0.00 0.00 0.00 69 1011.5
20260507053126 8 20 0.0 0.0 0.00 0.00 0.00 68 1011.7
20260507052148 8 19 0.0 1.6 0.00 0.00 0.00 68 1012.0
20260507051249 8 17 0.0 0.0 0.00 0.00 0.00 69 1012.0
20260507050250 8 0.0 0.0 0.00 0.00 0.00 69 1012.0
20260507045208 8 0.0 0.0 0.00 0.00 0.00 71 1012.0
20260507044209 8 0.0 0.0 0.00 0.00 0.00 70 1011.8
20260507043127 8 17 0.0 1.6 0.00 0.00 0.00 66 1011.8
20260507042148 8 17 0.0 0.0 0.00 0.00 0.00 68 1012.0
20260507041210 8 0.0 0.0 0.00 0.00 0.00 66 1011.8
20260507040230 8 0.0 0.0 0.00 0.00 0.00 64 1011.8
20260507035148 9 17 0.0 0.0 0.00 0.00 0.00 64 1011.7